TITAN 3C TRANSTAGE R/B, 2868

Orbit data source: Space-Track

TITAN 3C TRANSTAGE R/B, 2868 is space debris in GEO originally from a launch on Sat, 01 Jul 1967 UTC launched from the Air Force Eastern Test Range (AFETR). Debris objects in space refer to the collection of defunct objects orbiting the Earth. Examples of debris include non-operational satellites, rocket bodies, and fragments generated from explosions, collisions, or faulty payload assembly.

Not visible in the next 10 days
Identifier
2868, 1967-066G
Orbit
GEO
Last TLE update
11 hours ago
Origin
Manufacturer
Martin Marietta
Mission
Spacecraft
Bus & Motor
TRANSTAGE, Unknown motor
Mass
2,176 kg wet, 2,050 kg dry
Launch date (UTC)
1967-07-01 (58 years ago)
Launch vehicle
Unknown
Launch site
Air Force Eastern Test Range (AFETR)
Object type
Payload
Rocket body
Debris
Shape & HBR
Cyl + 2 Nozzle, 4.6 m
Radar Cross Section
14.974 m², Large (>1 m²)

Expand to show TLE details & history

TLE from 11 hours ago
0 TITAN 3C TRANSTAGE R/B
1 02868U 67066G   25128.74053544 -.00000050  00000-0  00000-0 0  9995
2 02868   1.4450 115.4209 0083080 151.1927 233.0242  1.08907311123931
Epoch: 2025-05-08T17:46Z
Definitive object data (Epoch: 2025-05-08T17:46:22.262Z)
Latitude
0.55869°
Longitude
5.47073°
Altitude
33,726.574 km
Speed
3.145 km/s
True Right ascension
09h 15m 28s
True Declination
0° 33' 29"
Sunlit
Object was in daylight at TLE epoch
Visualization TLE readout
Latitude
-0.73691°
Longitude
-166.52017°
Altitude
33,361.399 km
Speed
3.174 km/s
Apparent Right ascension
22h 08m 28s
Apparent Declination
-6° 06' 04"
Sunlit
Object is in daylight
Visualization observer readout
Local Sidereal Time
13:19:41
Azimuth
64.776° ENE
Elevation
-35.481°
Doppler factor
1
Orbital elements
Apogee altitude
33,859.824 km
Perigee altitude
33,196.739 km
Semi-major axis
39,906.418 km
Eccentricity
0.008308
Inclination
1.445°
RAAN
115.4209°
Arg. of periapsis
151.1927°
True anomaly
232.26838°
Mean anomaly
233.0242°
Eccentric anomaly
232.64582°
Mean motion
0.27226 °/min
BSTAR
Unknown
Orbital period
1322.28 mins
Loading historical data...
2868 neighbors
Loading maneuver chart data...
Loading SW <> Apogee altitude chart data...
Loading historical data...
Loading historical data...
Loading historical data...
Loading historical data...
Loading historical data...
Loading historical data...
Loading historical data...

TITAN 3C TRANSTAGE R/B Visibility forecast

Observer location: undefined°, undefined°

TITAN 3C TRANSTAGE R/B is not visible in the next 10 days
Span
Click to sort rows by Start time (UTC) header in descending order
Start Az.
Max El. time (UTC)
Max El. Az.
Max El.
End time (UTC)
End Az.
|